Time,TemperatureF,DewpointF,PressureIn,WindDirection,WindDirectionDegrees,WindSpeedMPH,WindSpeedGustMPH,Humidity,HourlyPrecipIn,Conditions,Clouds,dailyrainin,SoftwareType,DateUTC
2013-04-28 00:01:00,44.8,39.4,30.08,SE,135,0.0,0.0,81,0.00,,,0.00,meteohub,2013-04-28 04:01:00,
2013-04-28 00:02:00,44.8,39.4,30.08,SE,135,0.0,0.0,81,0.00,,,0.00,meteohub,2013-04-28 04:02:00,
2013-04-28 00:03:00,44.8,39.4,30.07,SE,135,0.0,0.0,81,0.00,,,0.00,meteohub,2013-04-28 04:03:00,
2013-04-28 00:07:00,44.8,39.4,30.07,SE,135,0.0,0.0,81,0.00,,,0.00,meteohub,2013-04-28 04:07:00,
2013-04-28 00:12:00,44.4,39.6,30.07,NE,45,0.0,0.0,83,0.00,,,0.00,meteohub,2013-04-28 04:12:00,
2013-04-28 00:17:00,44.2,39.4,30.07,East,90,0.0,0.0,83,0.00,,,0.00,meteohub,2013-04-28 04:17:00,
2013-04-28 00:22:00,44.2,39.4,30.08,East,90,0.0,0.0,83,0.00,,,0.00,meteohub,2013-04-28 04:22:00,
2013-04-28 00:27:00,44.2,39.4,30.07,East,90,0.0,0.0,83,0.00,,,0.00,meteohub,2013-04-28 04:27:00,
2013-04-28 00:32:00,44.2,39.4,30.07,East,90,0.0,0.0,83,0.00,,,0.00,meteohub,2013-04-28 04:32:00,
2013-04-28 00:37:00,44.4,39.9,30.07,SW,225,0.0,0.0,84,0.00,,,0.00,meteohub,2013-04-28 04:37:00,
2013-04-28 00:42:00,44.6,39.7,30.07,NE,45,0.0,0.0,83,0.00,,,0.00,meteohub,2013-04-28 04:42:00,
2013-04-28 00:47:00,44.8,40.3,30.07,East,90,0.0,0.0,84,0.00,,,0.00,meteohub,2013-04-28 04:47:00,
2013-04-28 00:52:00,44.8,40.3,30.06,East,90,0.0,0.0,84,0.00,,,0.00,meteohub,2013-04-28 04:52:00,
2013-04-28 00:57:00,44.8,40.3,30.06,East,90,0.0,0.0,84,0.00,,,0.00,meteohub,2013-04-28 04:57:00,
2013-04-28 01:02:00,44.8,40.3,30.06,East,90,0.0,0.0,84,0.00,,,0.00,meteohub,2013-04-28 05:02:00,
2013-04-28 01:07:00,44.6,40.1,30.06,East,90,0.0,0.0,84,0.00,,,0.00,meteohub,2013-04-28 05:07:00,
2013-04-28 01:12:00,44.6,40.1,30.06,North,0,0.0,0.0,84,0.00,,,0.00,meteohub,2013-04-28 05:12:00,
2013-04-28 01:17:00,44.2,40.1,30.06,North,0,0.0,0.0,85,0.00,,,0.00,meteohub,2013-04-28 05:17:00,
2013-04-28 01:22:00,44.1,39.9,30.06,North,0,0.0,0.0,85,0.00,,,0.00,meteohub,2013-04-28 05:22:00,
2013-04-28 01:27:00,43.9,39.7,30.06,North,0,0.0,0.0,85,0.00,,,0.00,meteohub,2013-04-28 05:27:00,
2013-04-28 01:32:00,43.9,39.7,30.05,North,0,0.0,0.0,85,0.00,,,0.00,meteohub,2013-04-28 05:32:00,
2013-04-28 01:37:00,43.7,39.6,30.06,North,0,0.0,0.0,85,0.00,,,0.00,meteohub,2013-04-28 05:37:00,
2013-04-28 01:42:00,43.7,39.6,30.05,North,0,0.0,0.0,85,0.00,,,0.00,meteohub,2013-04-28 05:42:00,
2013-04-28 01:47:00,43.7,39.6,30.05,North,0,0.0,0.0,85,0.00,,,0.00,meteohub,2013-04-28 05:47:00,
2013-04-28 01:52:00,43.9,39.9,30.05,North,0,0.0,0.0,86,0.00,,,0.00,meteohub,2013-04-28 05:52:00,
2013-04-28 01:57:00,43.9,39.9,30.04,North,0,0.0,0.0,86,0.00,,,0.00,meteohub,2013-04-28 05:57:00,
2013-04-28 02:02:00,44.1,40.1,30.04,North,0,0.0,0.0,86,0.00,,,0.00,meteohub,2013-04-28 06:02:00,
2013-04-28 02:07:00,44.1,40.1,30.04,North,0,0.0,0.0,86,0.00,,,0.00,meteohub,2013-04-28 06:07:00,
2013-04-28 02:12:00,44.8,40.5,30.04,North,0,0.0,0.0,85,0.00,,,0.00,meteohub,2013-04-28 06:12:00,
2013-04-28 02:17:00,45.0,40.6,30.04,North,0,0.0,0.0,85,0.00,,,0.00,meteohub,2013-04-28 06:17:00,
2013-04-28 02:22:00,45.3,41.0,30.04,North,0,0.0,0.0,85,0.00,,,0.00,meteohub,2013-04-28 06:22:00,
2013-04-28 02:27:00,45.5,41.2,30.04,North,0,0.0,0.0,85,0.00,,,0.00,meteohub,2013-04-28 06:27:00,
2013-04-28 02:32:00,45.7,41.2,30.03,North,0,0.0,0.0,84,0.00,,,0.00,meteohub,2013-04-28 06:32:00,
2013-04-28 02:37:00,46.0,41.5,30.03,North,0,0.0,0.0,84,0.00,,,0.00,meteohub,2013-04-28 06:37:00,
2013-04-28 02:42:00,46.0,41.5,30.03,North,0,0.0,0.0,84,0.00,,,0.00,meteohub,2013-04-28 06:42:00,
2013-04-28 02:47:00,46.4,42.1,30.02,North,0,0.0,0.0,85,0.00,,,0.00,meteohub,2013-04-28 06:47:00,
2013-04-28 02:52:00,46.8,42.4,30.02,SW,225,2.0,0.0,85,0.00,,,0.00,meteohub,2013-04-28 06:52:00,
2013-04-28 02:57:00,47.1,42.6,30.02,NW,315,0.0,2.0,84,0.00,,,0.00,meteohub,2013-04-28 06:57:00,
2013-04-28 03:02:00,47.5,42.6,30.01,East,90,0.0,2.0,83,0.00,,,0.00,meteohub,2013-04-28 07:02:00,
2013-04-28 03:07:00,47.5,42.6,30.01,East,90,0.0,2.0,83,0.00,,,0.00,meteohub,2013-04-28 07:07:00,
2013-04-28 03:12:00,47.7,42.8,30.01,North,0,0.0,2.0,83,0.00,,,0.00,meteohub,2013-04-28 07:12:00,
2013-04-28 03:17:00,47.8,43.0,30.00,North,0,2.0,2.0,83,0.00,,,0.00,meteohub,2013-04-28 07:17:00,
2013-04-28 03:22:00,47.8,42.6,29.99,North,0,0.0,2.0,82,0.00,,,0.00,meteohub,2013-04-28 07:22:00,
2013-04-28 03:27:00,47.8,42.3,29.99,North,0,2.0,2.0,81,0.00,,,0.00,meteohub,2013-04-28 07:27:00,
2013-04-28 03:32:00,48.0,42.4,29.99,North,0,0.0,2.0,81,0.00,,,0.00,meteohub,2013-04-28 07:32:00,
2013-04-28 03:37:00,48.0,42.1,29.99,North,0,0.0,2.0,80,0.00,,,0.00,meteohub,2013-04-28 07:37:00,
2013-04-28 03:42:00,48.0,42.1,29.99,North,0,0.0,2.0,80,0.00,,,0.00,meteohub,2013-04-28 07:42:00,
2013-04-28 03:47:00,48.0,42.1,29.99,North,0,0.0,1.0,80,0.00,,,0.00,meteohub,2013-04-28 07:47:00,
2013-04-28 03:52:00,48.0,41.9,29.99,North,0,0.0,0.0,79,0.00,,,0.00,meteohub,2013-04-28 07:52:00,
2013-04-28 03:57:00,48.2,41.4,29.99,North,0,0.0,0.0,77,0.00,,,0.00,meteohub,2013-04-28 07:57:00,
2013-04-28 04:02:00,48.4,41.5,29.99,North,0,0.0,0.0,77,0.00,,,0.00,meteohub,2013-04-28 08:02:00,
2013-04-28 04:07:00,48.4,41.5,29.99,North,0,0.0,0.0,77,0.00,,,0.00,meteohub,2013-04-28 08:07:00,
2013-04-28 04:12:00,48.6,41.7,29.99,WSW,248,0.0,0.0,77,0.00,,,0.00,meteohub,2013-04-28 08:12:00,
2013-04-28 04:17:00,48.7,41.9,29.99,North,0,0.0,0.0,77,0.00,,,0.00,meteohub,2013-04-28 08:17:00,
2013-04-28 04:22:00,48.9,41.7,29.99,North,0,0.0,0.0,76,0.00,,,0.00,meteohub,2013-04-28 08:22:00,
2013-04-28 04:27:00,49.3,41.7,29.99,SE,135,0.0,0.0,75,0.00,,,0.00,meteohub,2013-04-28 08:27:00,
2013-04-28 04:32:00,49.6,41.7,29.99,SE,135,0.0,0.0,74,0.00,,,0.00,meteohub,2013-04-28 08:32:00,
2013-04-28 04:37:00,50.0,40.6,29.98,SE,135,0.0,0.0,70,0.00,,,0.00,meteohub,2013-04-28 08:37:00,
2013-04-28 04:42:00,50.2,41.9,29.98,SE,135,0.0,0.0,73,0.00,,,0.00,meteohub,2013-04-28 08:42:00,
2013-04-28 04:47:00,50.0,41.7,29.98,SE,135,0.0,0.0,73,0.00,,,0.00,meteohub,2013-04-28 08:47:00,
2013-04-28 04:52:00,49.6,42.1,29.98,SE,135,0.0,0.0,75,0.00,,,0.00,meteohub,2013-04-28 08:52:00,
2013-04-28 04:57:00,49.3,41.7,29.98,SE,135,0.0,0.0,75,0.00,,,0.00,meteohub,2013-04-28 08:57:00,
2013-04-28 05:02:00,49.1,41.9,29.97,SE,135,0.0,0.0,76,0.00,,,0.00,meteohub,2013-04-28 09:02:00,
2013-04-28 05:07:00,48.9,41.7,29.97,SE,135,0.0,0.0,76,0.00,,,0.00,meteohub,2013-04-28 09:07:00,
2013-04-28 05:12:00,49.1,41.5,29.98,SE,135,0.0,0.0,75,0.00,,,0.00,meteohub,2013-04-28 09:12:00,
2013-04-28 05:17:00,49.3,41.7,29.98,SE,135,0.0,0.0,75,0.00,,,0.00,meteohub,2013-04-28 09:17:00,
2013-04-28 05:22:00,49.5,41.9,29.98,SE,135,0.0,0.0,75,0.00,,,0.00,meteohub,2013-04-28 09:22:00,
2013-04-28 05:27:00,49.5,41.5,29.97,East,90,0.0,0.0,74,0.00,,,0.00,meteohub,2013-04-28 09:27:00,
2013-04-28 05:32:00,49.8,41.9,29.98,East,90,0.0,0.0,74,0.00,,,0.00,meteohub,2013-04-28 09:32:00,
2013-04-28 05:37:00,50.0,42.1,29.97,East,90,0.0,0.0,74,0.00,,,0.00,meteohub,2013-04-28 09:37:00,
2013-04-28 05:42:00,49.8,42.3,29.97,East,90,0.0,0.0,75,0.00,,,0.00,meteohub,2013-04-28 09:42:00,
2013-04-28 05:47:00,49.6,42.1,29.98,East,90,0.0,0.0,75,0.00,,,0.00,meteohub,2013-04-28 09:47:00,
2013-04-28 05:52:00,49.8,41.9,29.98,South,180,0.0,0.0,74,0.00,,,0.00,meteohub,2013-04-28 09:52:00,
2013-04-28 05:57:00,50.0,42.1,29.98,South,180,0.0,0.0,74,0.00,,,0.00,meteohub,2013-04-28 09:57:00,
2013-04-28 06:02:00,49.8,42.3,29.98,South,180,0.0,0.0,75,0.00,,,0.00,meteohub,2013-04-28 10:02:00,
2013-04-28 06:07:00,50.0,41.7,29.97,East,90,0.0,0.0,73,0.00,,,0.00,meteohub,2013-04-28 10:07:00,
2013-04-28 06:12:00,50.0,41.4,29.97,East,90,0.0,0.0,72,0.00,,,0.00,meteohub,2013-04-28 10:12:00,
2013-04-28 06:17:00,50.2,41.2,29.97,North,0,0.0,0.0,71,0.00,,,0.00,meteohub,2013-04-28 10:17:00,
2013-04-28 06:22:00,50.2,41.5,29.96,North,0,0.0,0.0,72,0.00,,,0.00,meteohub,2013-04-28 10:22:00,
2013-04-28 06:27:00,50.0,41.7,29.96,North,0,0.0,0.0,73,0.00,,,0.00,meteohub,2013-04-28 10:27:00,
2013-04-28 06:33:00,49.8,41.9,29.96,West,270,0.0,0.0,74,0.00,,,0.00,meteohub,2013-04-28 10:33:00,
2013-04-28 06:38:00,49.6,41.7,29.96,East,90,0.0,0.0,74,0.00,,,0.00,meteohub,2013-04-28 10:38:00,
2013-04-28 06:43:00,49.5,41.5,29.96,East,90,0.0,0.0,74,0.00,,,0.00,meteohub,2013-04-28 10:43:00,
2013-04-28 06:48:00,49.3,41.4,29.96,East,90,0.0,0.0,74,0.00,,,0.00,meteohub,2013-04-28 10:48:00,
2013-04-28 06:53:00,49.3,41.4,29.96,East,90,0.0,0.0,74,0.00,,,0.00,meteohub,2013-04-28 10:53:00,
2013-04-28 06:58:00,49.3,41.4,29.96,East,90,0.0,0.0,74,0.00,,,0.00,meteohub,2013-04-28 10:58:00,
2013-04-28 07:03:00,49.5,41.9,29.96,East,90,2.0,0.0,75,0.00,,,0.00,meteohub,2013-04-28 11:03:00,
2013-04-28 07:08:00,49.6,42.1,29.96,East,90,2.0,2.0,75,0.00,,,0.00,meteohub,2013-04-28 11:08:00,
2013-04-28 07:13:00,50.0,41.7,29.96,East,90,2.0,2.0,73,0.00,,,0.00,meteohub,2013-04-28 11:13:00,
2013-04-28 07:18:00,50.2,41.9,29.96,NE,45,0.0,2.0,73,0.00,,,0.00,meteohub,2013-04-28 11:18:00,
2013-04-28 07:24:00,50.4,42.1,29.96,East,90,0.0,2.0,73,0.00,,,0.00,meteohub,2013-04-28 11:24:00,
2013-04-28 07:29:00,50.5,41.9,29.96,East,90,0.0,2.0,72,0.00,,,0.00,meteohub,2013-04-28 11:29:00,
2013-04-28 07:34:00,50.7,42.1,29.96,East,90,0.0,2.0,72,0.00,,,0.00,meteohub,2013-04-28 11:34:00,
2013-04-28 07:39:00,50.9,41.9,29.96,East,90,0.0,0.0,71,0.00,,,0.00,meteohub,2013-04-28 11:39:00,
2013-04-28 07:44:00,51.1,42.1,29.96,East,90,0.0,0.0,71,0.00,,,0.00,meteohub,2013-04-28 11:44:00,
2013-04-28 07:49:00,51.3,42.3,29.96,NE,45,0.0,0.0,71,0.00,,,0.00,meteohub,2013-04-28 11:49:00,
2013-04-28 07:54:00,51.3,42.3,29.96,East,90,0.0,0.0,71,0.00,,,0.00,meteohub,2013-04-28 11:54:00,
2013-04-28 07:59:00,51.4,42.4,29.96,NE,45,0.0,0.0,71,0.00,,,0.00,meteohub,2013-04-28 11:59:00,
2013-04-28 08:04:00,51.4,42.4,29.96,NE,45,0.0,0.0,71,0.00,,,0.00,meteohub,2013-04-28 12:04:00,
2013-04-28 08:09:00,51.6,42.4,29.95,East,90,0.0,0.0,71,0.00,,,0.00,meteohub,2013-04-28 12:09:00,
2013-04-28 08:15:00,51.8,42.3,29.96,East,90,2.0,0.0,70,0.00,,,0.00,meteohub,2013-04-28 12:15:00,
2013-04-28 08:20:00,51.8,41.9,29.96,East,90,0.0,2.0,69,0.00,,,0.00,meteohub,2013-04-28 12:20:00,
2013-04-28 08:25:00,52.0,42.4,29.95,East,90,3.0,3.0,70,0.00,,,0.00,meteohub,2013-04-28 12:25:00,
2013-04-28 08:30:00,52.0,42.1,29.95,East,90,1.0,3.0,69,0.00,,,0.00,meteohub,2013-04-28 12:30:00,
2013-04-28 08:35:00,52.2,42.6,29.95,NE,45,0.0,3.0,70,0.00,,,0.00,meteohub,2013-04-28 12:35:00,
2013-04-28 08:40:00,52.3,42.8,29.95,East,90,0.0,3.0,70,0.00,,,0.00,meteohub,2013-04-28 12:40:00,
2013-04-28 08:45:00,52.7,43.5,29.95,SE,135,0.0,2.0,71,0.00,,,0.00,meteohub,2013-04-28 12:45:00,
2013-04-28 08:50:00,52.9,43.3,29.95,NW,315,0.0,0.0,70,0.00,,,0.00,meteohub,2013-04-28 12:50:00,
2013-04-28 08:55:00,53.1,43.5,29.95,East,90,3.0,0.0,70,0.00,,,0.00,meteohub,2013-04-28 12:55:00,
2013-04-28 09:01:00,53.2,43.3,29.95,East,90,0.0,3.0,69,0.00,,,0.00,meteohub,2013-04-28 13:01:00,
2013-04-28 09:06:00,53.6,43.3,29.95,NE,45,2.0,3.0,68,0.00,,,0.00,meteohub,2013-04-28 13:06:00,
2013-04-28 09:11:00,53.8,43.5,29.95,NE,45,0.0,3.0,68,0.00,,,0.00,meteohub,2013-04-28 13:11:00,
2013-04-28 09:16:00,54.1,43.9,29.94,NE,45,0.0,3.0,68,0.00,,,0.00,meteohub,2013-04-28 13:16:00,
2013-04-28 09:21:00,54.5,44.2,29.94,East,90,0.0,2.0,68,0.00,,,0.00,meteohub,2013-04-28 13:21:00,
2013-04-28 09:26:00,55.0,44.6,29.94,North,0,0.0,1.0,68,0.00,,,0.00,meteohub,2013-04-28 13:26:00,
2013-04-28 09:31:00,55.9,45.5,29.94,East,90,4.0,4.0,68,0.00,,,0.00,meteohub,2013-04-28 13:31:00,
2013-04-28 09:36:00,56.7,46.2,29.94,North,0,3.0,4.0,68,0.00,,,0.00,meteohub,2013-04-28 13:36:00,
2013-04-28 09:41:00,57.6,46.8,29.94,SW,225,4.0,5.0,67,0.00,,,0.00,meteohub,2013-04-28 13:41:00,
2013-04-28 09:46:00,57.9,46.6,29.94,North,0,3.0,5.0,66,0.00,,,0.00,meteohub,2013-04-28 13:46:00,
2013-04-28 09:52:00,58.1,46.8,29.94,NW,315,8.0,8.0,66,0.00,,,0.00,meteohub,2013-04-28 13:52:00,
2013-04-28 09:57:00,57.9,46.2,29.94,SW,225,4.0,8.0,65,0.00,,,0.00,meteohub,2013-04-28 13:57:00,
2013-04-28 10:02:00,57.9,46.2,29.93,South,180,4.0,8.0,65,0.00,,,0.00,meteohub,2013-04-28 14:02:00,
2013-04-28 10:07:00,57.7,46.0,29.93,East,90,3.0,8.0,65,0.00,,,0.00,meteohub,2013-04-28 14:07:00,
2013-04-28 10:12:00,57.6,46.2,29.93,SE,135,4.0,4.0,66,0.00,,,0.00,meteohub,2013-04-28 14:12:00,
2013-04-28 10:17:00,57.4,46.6,29.93,East,90,3.0,6.0,67,0.00,,,0.00,meteohub,2013-04-28 14:17:00,
2013-04-28 10:22:00,57.2,46.8,29.93,SE,135,2.0,6.0,68,0.00,,,0.00,meteohub,2013-04-28 14:22:00,
2013-04-28 10:27:00,57.0,47.3,29.93,NW,315,2.0,6.0,70,0.00,,,0.00,meteohub,2013-04-28 14:27:00,
2013-04-28 10:32:00,56.5,48.0,29.93,East,90,4.0,4.0,73,0.00,,,0.00,meteohub,2013-04-28 14:32:00,
2013-04-28 10:37:00,56.1,48.0,29.93,South,180,2.0,4.0,74,0.00,,,0.00,meteohub,2013-04-28 14:37:00,
2013-04-28 10:42:00,56.1,48.4,29.93,WNW,293,2.0,4.0,75,0.00,,,0.00,meteohub,2013-04-28 14:42:00,
2013-04-28 10:47:00,56.1,48.4,29.93,NE,45,3.0,4.0,75,0.00,,,0.00,meteohub,2013-04-28 14:47:00,
2013-04-28 10:52:00,56.1,48.7,29.93,North,0,3.0,4.0,76,0.00,,,0.00,meteohub,2013-04-28 14:52:00,
2013-04-28 10:57:00,56.1,48.7,29.93,NE,45,3.0,4.0,76,0.00,,,0.00,meteohub,2013-04-28 14:57:00,
2013-04-28 11:02:00,55.9,49.1,29.93,ESE,113,4.0,4.0,78,0.00,,,0.00,meteohub,2013-04-28 15:02:00,
2013-04-28 11:07:00,55.8,49.3,29.92,East,90,3.0,4.0,79,0.00,,,0.00,meteohub,2013-04-28 15:07:00,
2013-04-28 11:12:00,55.2,49.5,29.92,South,180,2.0,4.0,81,0.00,,,0.00,meteohub,2013-04-28 15:12:00,
2013-04-28 11:17:00,54.9,49.5,29.92,NE,45,3.0,4.0,82,0.01,,,0.01,meteohub,2013-04-28 15:17:00,
2013-04-28 11:22:00,54.5,49.8,29.92,East,90,4.0,4.0,84,0.01,,,0.01,meteohub,2013-04-28 15:22:00,
2013-04-28 11:27:00,54.1,49.8,29.92,NE,45,1.0,4.0,85,0.01,,,0.01,meteohub,2013-04-28 15:27:00,
2013-04-28 11:32:00,54.0,49.8,29.92,NE,45,2.0,4.0,86,0.01,,,0.01,meteohub,2013-04-28 15:32:00,
2013-04-28 11:37:00,53.8,50.0,29.92,SSE,158,3.0,4.0,87,0.02,,,0.02,meteohub,2013-04-28 15:37:00,
2013-04-28 11:42:00,53.6,50.2,29.91,East,90,2.0,4.0,88,0.02,,,0.02,meteohub,2013-04-28 15:42:00,
2013-04-28 11:47:00,53.4,50.5,29.91,NE,45,2.0,4.0,90,0.04,,,0.04,meteohub,2013-04-28 15:47:00,
2013-04-28 11:52:00,53.4,50.9,29.91,East,90,2.0,4.0,91,0.04,,,0.04,meteohub,2013-04-28 15:52:00,
2013-04-28 11:57:00,53.6,51.1,29.91,NE,45,2.0,3.0,91,0.04,,,0.04,meteohub,2013-04-28 15:57:00,
2013-04-28 12:02:00,53.6,51.1,29.91,NE,45,2.0,3.0,91,0.04,,,0.04,meteohub,2013-04-28 16:02:00,
2013-04-28 12:07:00,53.6,51.3,29.91,East,90,2.0,3.0,92,0.04,,,0.04,meteohub,2013-04-28 16:07:00,
2013-04-28 12:12:00,53.6,51.3,29.91,East,90,2.0,3.0,92,0.04,,,0.04,meteohub,2013-04-28 16:12:00,
2013-04-28 12:17:00,53.4,51.4,29.91,NE,45,4.0,4.0,93,0.02,,,0.04,meteohub,2013-04-28 16:17:00,
2013-04-28 12:22:00,53.4,51.4,29.91,East,90,2.0,4.0,93,0.04,,,0.05,meteohub,2013-04-28 16:22:00,
2013-04-28 12:27:00,53.4,51.4,29.90,East,90,4.0,6.0,93,0.04,,,0.05,meteohub,2013-04-28 16:27:00,
2013-04-28 12:32:00,53.4,51.8,29.90,East,90,3.0,6.0,94,0.04,,,0.05,meteohub,2013-04-28 16:32:00,
2013-04-28 12:37:00,53.2,51.6,29.90,East,90,2.0,6.0,94,0.02,,,0.05,meteohub,2013-04-28 16:37:00,
2013-04-28 12:42:00,53.4,51.8,29.90,NE,45,3.0,4.0,94,0.02,,,0.05,meteohub,2013-04-28 16:42:00,
2013-04-28 12:47:00,53.6,52.0,29.90,East,90,3.0,4.0,94,0.01,,,0.05,meteohub,2013-04-28 16:47:00,
2013-04-28 12:52:00,53.6,52.0,29.90,West,270,2.0,4.0,94,0.01,,,0.05,meteohub,2013-04-28 16:52:00,
2013-04-28 12:57:00,53.4,52.0,29.90,NNW,338,2.0,4.0,95,0.01,,,0.05,meteohub,2013-04-28 16:57:00,
2013-04-28 13:02:00,53.4,52.0,29.90,NE,45,2.0,4.0,95,0.01,,,0.05,meteohub,2013-04-28 17:02:00,
2013-04-28 13:07:00,53.2,51.8,29.89,East,90,4.0,4.0,95,0.01,,,0.05,meteohub,2013-04-28 17:07:00,
2013-04-28 13:12:00,53.2,51.8,29.89,ESE,113,2.0,6.0,95,0.01,,,0.05,meteohub,2013-04-28 17:12:00,
2013-04-28 13:17:00,53.2,51.8,29.89,North,0,2.0,6.0,95,0.01,,,0.06,meteohub,2013-04-28 17:17:00,
2013-04-28 13:22:00,53.1,51.6,29.88,NE,45,5.0,6.0,95,0.01,,,0.06,meteohub,2013-04-28 17:22:00,
2013-04-28 13:27:00,53.1,52.0,29.88,South,180,2.0,5.0,96,0.01,,,0.06,meteohub,2013-04-28 17:27:00,
2013-04-28 13:32:00,53.2,52.2,29.88,South,180,1.0,6.0,96,0.01,,,0.06,meteohub,2013-04-28 17:32:00,
2013-04-28 13:37:00,53.4,52.3,29.88,East,90,4.0,6.0,96,0.01,,,0.06,meteohub,2013-04-28 17:37:00,
2013-04-28 13:42:00,53.6,52.5,29.88,East,90,3.0,6.0,96,0.01,,,0.06,meteohub,2013-04-28 17:42:00,
2013-04-28 13:47:00,53.6,52.5,29.88,North,0,3.0,4.0,96,0.01,,,0.06,meteohub,2013-04-28 17:47:00,
2013-04-28 13:52:00,53.4,52.5,29.88,SW,225,1.0,7.0,97,0.01,,,0.06,meteohub,2013-04-28 17:52:00,
2013-04-28 13:57:00,53.4,52.5,29.88,East,90,2.0,7.0,97,0.01,,,0.06,meteohub,2013-04-28 17:57:00,
2013-04-28 14:02:00,53.4,52.5,29.88,South,180,2.0,7.0,97,0.01,,,0.06,meteohub,2013-04-28 18:02:00,
2013-04-28 14:07:00,53.4,52.5,29.87,East,90,4.0,4.0,97,0.01,,,0.06,meteohub,2013-04-28 18:07:00,
2013-04-28 14:12:00,53.2,52.3,29.88,East,90,2.0,4.0,97,0.01,,,0.06,meteohub,2013-04-28 18:12:00,
2013-04-28 14:17:00,53.2,52.3,29.87,NW,315,0.0,4.0,97,0.00,,,0.06,meteohub,2013-04-28 18:17:00,
2013-04-28 14:22:00,53.2,52.3,29.87,East,90,2.0,4.0,97,0.00,,,0.06,meteohub,2013-04-28 18:22:00,
2013-04-28 14:27:00,53.2,52.3,29.87,NW,315,2.0,4.0,97,0.00,,,0.06,meteohub,2013-04-28 18:27:00,
2013-04-28 14:32:00,53.2,52.3,29.87,South,180,4.0,4.0,97,0.00,,,0.06,meteohub,2013-04-28 18:32:00,
2013-04-28 14:37:00,53.2,52.3,29.87,South,180,4.0,4.0,97,0.00,,,0.06,meteohub,2013-04-28 18:37:00,
2013-04-28 14:42:00,53.1,52.5,29.87,East,90,2.0,4.0,98,0.00,,,0.06,meteohub,2013-04-28 18:42:00,
2013-04-28 14:47:00,53.1,52.5,29.86,East,90,2.0,4.0,98,0.01,,,0.07,meteohub,2013-04-28 18:47:00,
2013-04-28 14:52:00,53.1,52.5,29.86,East,90,2.0,4.0,98,0.01,,,0.07,meteohub,2013-04-28 18:52:00,
2013-04-28 14:57:00,53.1,52.5,29.86,NE,45,0.0,3.0,98,0.02,,,0.08,meteohub,2013-04-28 18:57:00,
2013-04-28 15:02:00,53.2,52.7,29.87,NE,45,4.0,4.0,98,0.02,,,0.08,meteohub,2013-04-28 19:02:00,
2013-04-28 15:07:00,53.1,52.5,29.86,NE,45,3.0,4.0,98,0.02,,,0.08,meteohub,2013-04-28 19:07:00,
2013-04-28 15:12:00,53.2,52.7,29.86,East,90,3.0,4.0,98,0.04,,,0.09,meteohub,2013-04-28 19:12:00,
2013-04-28 15:17:00,53.2,52.7,29.86,East,90,0.0,4.0,98,0.05,,,0.11,meteohub,2013-04-28 19:17:00,
2013-04-28 15:22:00,53.2,52.7,29.86,NE,45,1.0,3.0,98,0.05,,,0.11,meteohub,2013-04-28 19:22:00,
2013-04-28 15:27:00,53.2,52.7,29.86,NE,45,2.0,3.0,98,0.06,,,0.12,meteohub,2013-04-28 19:27:00,
2013-04-28 15:32:00,53.2,52.7,29.86,East,90,2.0,3.0,98,0.06,,,0.12,meteohub,2013-04-28 19:32:00,
2013-04-28 15:37:00,53.2,52.7,29.85,East,90,2.0,3.0,98,0.06,,,0.12,meteohub,2013-04-28 19:37:00,
2013-04-28 15:42:00,53.2,52.7,29.85,East,90,2.0,3.0,98,0.06,,,0.13,meteohub,2013-04-28 19:42:00,
2013-04-28 15:47:00,53.2,52.7,29.85,North,0,2.0,3.0,98,0.06,,,0.13,meteohub,2013-04-28 19:47:00,
2013-04-28 15:52:00,53.2,52.7,29.85,East,90,2.0,2.0,98,0.06,,,0.13,meteohub,2013-04-28 19:52:00,
2013-04-28 15:57:00,53.2,52.7,29.85,East,90,0.0,2.0,98,0.05,,,0.13,meteohub,2013-04-28 19:57:00,
2013-04-28 16:02:00,53.2,52.7,29.85,NE,45,0.0,2.0,98,0.06,,,0.14,meteohub,2013-04-28 20:02:00,
2013-04-28 16:07:00,53.2,52.7,29.85,East,90,2.0,2.0,98,0.06,,,0.14,meteohub,2013-04-28 20:07:00,
2013-04-28 16:12:00,53.2,52.7,29.85,North,0,0.0,2.0,98,0.05,,,0.14,meteohub,2013-04-28 20:12:00,
2013-04-28 16:17:00,53.2,52.7,29.85,North,0,2.0,2.0,98,0.05,,,0.14,meteohub,2013-04-28 20:17:00,
2013-04-28 16:22:00,53.2,52.7,29.85,East,90,0.0,2.0,98,0.05,,,0.15,meteohub,2013-04-28 20:22:00,
2013-04-28 16:27:00,53.6,52.7,29.84,NE,45,0.0,2.0,97,0.06,,,0.18,meteohub,2013-04-28 20:27:00,
2013-04-28 16:32:00,53.6,52.7,29.84,East,90,1.0,2.0,97,0.07,,,0.19,meteohub,2013-04-28 20:32:00,
2013-04-28 16:37:00,53.6,52.7,29.84,East,90,2.0,2.0,97,0.07,,,0.20,meteohub,2013-04-28 20:37:00,
2013-04-28 16:42:00,53.6,52.7,29.84,NE,45,0.0,2.0,97,0.08,,,0.21,meteohub,2013-04-28 20:42:00,
2013-04-28 16:47:00,53.6,52.7,29.84,East,90,0.0,2.0,97,0.09,,,0.22,meteohub,2013-04-28 20:47:00,
2013-04-28 16:52:00,53.6,52.7,29.84,East,90,2.0,3.0,97,0.11,,,0.24,meteohub,2013-04-28 20:52:00,
2013-04-28 16:57:00,53.6,52.7,29.84,East,90,0.0,3.0,97,0.12,,,0.25,meteohub,2013-04-28 20:57:00,
2013-04-28 17:02:00,53.6,52.7,29.84,East,90,0.0,3.0,97,0.11,,,0.25,meteohub,2013-04-28 21:02:00,
2013-04-28 17:07:00,53.6,52.7,29.83,East,90,0.0,2.0,97,0.13,,,0.27,meteohub,2013-04-28 21:07:00,
2013-04-28 17:12:00,53.6,52.7,29.84,East,90,0.0,0.0,97,0.14,,,0.28,meteohub,2013-04-28 21:12:00,
2013-04-28 17:17:00,53.6,52.7,29.83,NE,45,0.0,0.0,97,0.13,,,0.28,meteohub,2013-04-28 21:17:00,
2013-04-28 17:22:00,53.6,52.7,29.83,East,90,0.0,2.0,97,0.13,,,0.30,meteohub,2013-04-28 21:22:00,
2013-04-28 17:27:00,53.6,52.7,29.83,East,90,2.0,2.0,97,0.13,,,0.30,meteohub,2013-04-28 21:27:00,
2013-04-28 17:32:00,53.6,52.7,29.83,East,90,0.0,2.0,97,0.13,,,0.32,meteohub,2013-04-28 21:32:00,
2013-04-28 17:37:00,53.6,52.7,29.83,East,90,0.0,2.0,97,0.12,,,0.32,meteohub,2013-04-28 21:37:00,
2013-04-28 17:42:00,53.8,52.9,29.83,East,90,2.0,2.0,97,0.11,,,0.32,meteohub,2013-04-28 21:42:00,
2013-04-28 17:47:00,53.8,52.9,29.83,East,90,0.0,2.0,97,0.11,,,0.33,meteohub,2013-04-28 21:47:00,
2013-04-28 17:52:00,54.0,53.1,29.83,East,90,0.0,2.0,97,0.11,,,0.34,meteohub,2013-04-28 21:52:00,
2013-04-28 17:57:00,54.0,53.1,29.83,East,90,0.0,2.0,97,0.09,,,0.34,meteohub,2013-04-28 21:57:00,
2013-04-28 18:02:00,54.0,53.1,29.83,East,90,0.0,0.0,97,0.09,,,0.35,meteohub,2013-04-28 22:02:00,
2013-04-28 18:07:00,54.0,53.1,29.83,East,90,0.0,0.0,97,0.08,,,0.35,meteohub,2013-04-28 22:07:00,
2013-04-28 18:12:00,54.0,53.1,29.83,East,90,0.0,0.0,97,0.07,,,0.35,meteohub,2013-04-28 22:12:00,
2013-04-28 18:17:00,54.0,53.1,29.83,East,90,0.0,2.0,97,0.07,,,0.35,meteohub,2013-04-28 22:17:00,
2013-04-28 18:22:00,54.0,53.1,29.83,East,90,0.0,2.0,97,0.07,,,0.35,meteohub,2013-04-28 22:22:00,
2013-04-28 18:27:00,54.0,53.1,29.83,NE,45,0.0,1.0,97,0.06,,,0.37,meteohub,2013-04-28 22:27:00,
2013-04-28 18:32:00,54.0,53.1,29.83,NE,45,0.0,1.0,97,0.05,,,0.37,meteohub,2013-04-28 22:32:00,
2013-04-28 18:37:00,54.0,53.1,29.82,East,90,0.0,1.0,97,0.06,,,0.38,meteohub,2013-04-28 22:37:00,
2013-04-28 18:42:00,54.0,53.1,29.82,East,90,0.0,2.0,97,0.05,,,0.38,meteohub,2013-04-28 22:42:00,
2013-04-28 18:47:00,54.0,53.1,29.83,East,90,0.0,2.0,97,0.05,,,0.38,meteohub,2013-04-28 22:47:00,
2013-04-28 18:52:00,54.0,53.1,29.83,NE,45,0.0,2.0,97,0.05,,,0.39,meteohub,2013-04-28 22:52:00,
2013-04-28 18:57:00,54.0,53.1,29.83,NE,45,2.0,2.0,97,0.04,,,0.39,meteohub,2013-04-28 22:57:00,
2013-04-28 19:02:00,54.0,53.1,29.82,NE,45,0.0,2.0,97,0.04,,,0.39,meteohub,2013-04-28 23:02:00,
2013-04-28 19:07:00,54.0,53.1,29.82,East,90,2.0,2.0,97,0.04,,,0.39,meteohub,2013-04-28 23:07:00,
2013-04-28 19:12:00,54.0,53.1,29.82,East,90,0.0,2.0,97,0.04,,,0.39,meteohub,2013-04-28 23:12:00,
2013-04-28 19:17:00,54.0,53.1,29.82,East,90,0.0,2.0,97,0.04,,,0.39,meteohub,2013-04-28 23:17:00,
2013-04-28 19:22:00,54.0,53.1,29.82,East,90,0.0,2.0,97,0.02,,,0.39,meteohub,2013-04-28 23:22:00,
2013-04-28 19:27:00,54.0,53.1,29.81,East,90,0.0,2.0,97,0.02,,,0.39,meteohub,2013-04-28 23:27:00,
2013-04-28 19:32:00,54.0,53.1,29.82,East,90,0.0,2.0,97,0.02,,,0.39,meteohub,2013-04-28 23:32:00,
2013-04-28 19:37:00,54.0,53.1,29.81,SE,135,0.0,0.0,97,0.01,,,0.39,meteohub,2013-04-28 23:37:00,
2013-04-28 19:42:00,54.0,53.1,29.81,East,90,0.0,0.0,97,0.02,,,0.40,meteohub,2013-04-28 23:42:00,
2013-04-28 19:47:00,54.0,53.1,29.82,East,90,0.0,0.0,97,0.02,,,0.40,meteohub,2013-04-28 23:47:00,
2013-04-28 19:52:00,54.0,53.1,29.82,East,90,0.0,0.0,97,0.01,,,0.40,meteohub,2013-04-28 23:52:00,
2013-04-28 19:57:00,54.0,53.1,29.81,East,90,0.0,0.0,97,0.01,,,0.40,meteohub,2013-04-28 23:57:00,
2013-04-28 20:02:00,54.0,53.1,29.82,NE,45,0.0,0.0,97,0.01,,,0.40,meteohub,2013-04-29 00:02:00,
2013-04-28 20:07:00,54.0,53.1,29.81,NE,45,0.0,0.0,97,0.01,,,0.40,meteohub,2013-04-29 00:07:00,
2013-04-28 20:12:00,54.0,53.1,29.82,NE,45,0.0,2.0,97,0.01,,,0.40,meteohub,2013-04-29 00:12:00,
2013-04-28 20:17:00,54.0,53.1,29.81,NE,45,0.0,2.0,97,0.01,,,0.40,meteohub,2013-04-29 00:17:00,
2013-04-28 20:22:00,54.0,53.1,29.82,East,90,0.0,2.0,97,0.01,,,0.40,meteohub,2013-04-29 00:22:00,
2013-04-28 20:27:00,54.0,53.1,29.82,East,90,0.0,0.0,97,0.01,,,0.40,meteohub,2013-04-29 00:27:00,
2013-04-28 20:32:00,54.0,53.1,29.82,East,90,0.0,0.0,97,0.01,,,0.40,meteohub,2013-04-29 00:32:00,
2013-04-28 20:37:00,54.0,53.1,29.82,East,90,0.0,0.0,97,0.01,,,0.40,meteohub,2013-04-29 00:37:00,
2013-04-28 20:42:00,54.0,53.1,29.82,North,0,0.0,0.0,97,0.00,,,0.40,meteohub,2013-04-29 00:42:00,
2013-04-28 20:47:00,54.0,53.1,29.82,East,90,0.0,0.0,97,0.00,,,0.40,meteohub,2013-04-29 00:47:00,
2013-04-28 20:52:00,54.0,53.1,29.82,East,90,0.0,2.0,97,0.00,,,0.40,meteohub,2013-04-29 00:52:00,
2013-04-28 20:57:00,54.0,53.1,29.82,East,90,0.0,2.0,97,0.00,,,0.40,meteohub,2013-04-29 00:57:00,
2013-04-28 21:02:00,54.0,53.1,29.82,East,90,0.0,1.0,97,0.00,,,0.40,meteohub,2013-04-29 01:02:00,
2013-04-28 21:07:00,54.0,53.1,29.82,East,90,0.0,0.0,97,0.00,,,0.40,meteohub,2013-04-29 01:07:00,
2013-04-28 21:12:00,54.0,53.1,29.82,East,90,0.0,0.0,97,0.00,,,0.40,meteohub,2013-04-29 01:12:00,
2013-04-28 21:17:00,54.0,53.1,29.82,East,90,0.0,0.0,97,0.00,,,0.40,meteohub,2013-04-29 01:17:00,
2013-04-28 21:22:00,54.0,53.1,29.82,East,90,0.0,0.0,97,0.00,,,0.40,meteohub,2013-04-29 01:22:00,
2013-04-28 21:27:00,54.0,53.1,29.83,South,180,0.0,0.0,97,0.00,,,0.40,meteohub,2013-04-29 01:27:00,
2013-04-28 21:32:00,54.0,53.1,29.83,South,180,0.0,0.0,97,0.00,,,0.40,meteohub,2013-04-29 01:32:00,
2013-04-28 21:37:00,54.0,53.1,29.83,East,90,0.0,0.0,97,0.00,,,0.40,meteohub,2013-04-29 01:37:00,
2013-04-28 21:42:00,54.0,53.1,29.83,East,90,0.0,0.0,97,0.00,,,0.40,meteohub,2013-04-29 01:42:00,
2013-04-28 21:47:00,54.0,53.1,29.82,East,90,0.0,0.0,97,0.00,,,0.40,meteohub,2013-04-29 01:47:00,
2013-04-28 21:52:00,54.0,53.1,29.83,East,90,0.0,0.0,97,0.00,,,0.40,meteohub,2013-04-29 01:52:00,
2013-04-28 21:57:00,54.0,53.1,29.83,East,90,0.0,0.0,97,0.00,,,0.40,meteohub,2013-04-29 01:57:00,
2013-04-28 22:02:00,54.0,53.1,29.83,East,90,0.0,0.0,97,0.00,,,0.40,meteohub,2013-04-29 02:02:00,
2013-04-28 22:07:00,54.0,53.1,29.83,East,90,0.0,0.0,97,0.00,,,0.40,meteohub,2013-04-29 02:07:00,
2013-04-28 22:12:00,53.8,52.9,29.83,East,90,0.0,0.0,97,0.00,,,0.40,meteohub,2013-04-29 02:12:00,
2013-04-28 22:17:00,53.8,52.9,29.83,East,90,0.0,0.0,97,0.00,,,0.40,meteohub,2013-04-29 02:17:00,
2013-04-28 22:22:00,53.8,52.9,29.83,East,90,0.0,0.0,97,0.00,,,0.40,meteohub,2013-04-29 02:22:00,
2013-04-28 22:27:00,53.8,52.9,29.83,East,90,0.0,0.0,97,0.00,,,0.40,meteohub,2013-04-29 02:27:00,
2013-04-28 22:32:00,53.8,52.9,29.83,West,270,0.0,0.0,97,0.00,,,0.40,meteohub,2013-04-29 02:32:00,
2013-04-28 22:37:00,54.0,53.1,29.83,East,90,0.0,0.0,97,0.00,,,0.40,meteohub,2013-04-29 02:37:00,
2013-04-28 22:42:00,54.0,53.1,29.83,East,90,0.0,0.0,97,0.00,,,0.40,meteohub,2013-04-29 02:42:00,
2013-04-28 22:47:00,54.0,53.1,29.83,East,90,0.0,0.0,97,0.00,,,0.40,meteohub,2013-04-29 02:47:00,
2013-04-28 22:52:00,54.0,53.1,29.83,East,90,0.0,0.0,97,0.00,,,0.40,meteohub,2013-04-29 02:52:00,
2013-04-28 22:57:00,54.0,53.1,29.83,East,90,0.0,0.0,97,0.00,,,0.40,meteohub,2013-04-29 02:57:00,
2013-04-28 23:02:00,54.1,53.2,29.82,East,90,0.0,0.0,97,0.00,,,0.40,meteohub,2013-04-29 03:02:00,
2013-04-28 23:07:00,54.1,53.2,29.82,East,90,0.0,0.0,97,0.00,,,0.40,meteohub,2013-04-29 03:07:00,
2013-04-28 23:12:00,54.1,53.2,29.82,East,90,0.0,0.0,97,0.00,,,0.40,meteohub,2013-04-29 03:12:00,
2013-04-28 23:17:00,54.0,53.1,29.82,East,90,0.0,0.0,97,0.00,,,0.40,meteohub,2013-04-29 03:17:00,
2013-04-28 23:22:00,54.0,53.1,29.82,East,90,0.0,0.0,97,0.00,,,0.40,meteohub,2013-04-29 03:22:00,
2013-04-28 23:27:00,53.8,52.9,29.82,East,90,0.0,0.0,97,0.00,,,0.40,meteohub,2013-04-29 03:27:00,
2013-04-28 23:32:00,53.8,52.9,29.82,East,90,0.0,0.0,97,0.00,,,0.40,meteohub,2013-04-29 03:32:00,
2013-04-28 23:37:00,53.8,52.9,29.82,East,90,0.0,0.0,97,0.00,,,0.40,meteohub,2013-04-29 03:37:00,
2013-04-28 23:42:00,53.8,52.9,29.82,East,90,0.0,0.0,97,0.00,,,0.40,meteohub,2013-04-29 03:42:00,
2013-04-28 23:47:00,53.8,52.9,29.82,East,90,0.0,0.0,97,0.00,,,0.40,meteohub,2013-04-29 03:47:00,
2013-04-28 23:52:00,53.8,52.9,29.81,East,90,0.0,0.0,97,0.00,,,0.40,meteohub,2013-04-29 03:52:00,
2013-04-28 23:57:00,53.8,52.9,29.82,East,90,0.0,0.0,97,0.00,,,0.40,meteohub,2013-04-29 03:57:00,